SCP
0 0 0 0 0 0 0 0 0 0 1 1 0 0 0 0 1 1 1 1 0 0 1 1 1 1 1 2 2 2 1 1 1 1 1 1 1 1 1 1 1 1 1 1
0 0 0 0 0 0 0 0 0 0 1 1 0 0 0 0 1 1 1 1 0 0 0 1 1 1 1 2 2 2 1 1 1 1 1 1 1 1 1 1 1 1 1 1
0 0 0 0 0 0 0 0 0 0 0 0 0 0 0 0 0 1 1 1 1 1 1 1 1 1 2 3 2 1 1 1 2 2 1 1 1 1 1 1 1 1 0 0
0 0 0 0 0 0 0 0 0 0 0 0 0 0 0 0 0 1 1 1 1 1 1 1 1 1 2 3 2 2 1 2 2 2 2 1 1 1 1 1 1 1 0 0
0 0 0 0 0 0 0 0 0 0 0 0 0 0 0 0 0 1 1 1 1 1 1 1 1 2 2 3 2 2 2 2 2 2 2 2 1 1 1 1 1 1 1 0
0 0 0 0 0 0 0 0 0 0 0 0 0 0 0 0 0 0 0 0 0 0 1 1 1 2 3 3 3 2 2 2 3 3 2 2 1 1 1 1 1 1 1 1
0 0 0 0 0 0 0 0 0 0 0 0 0 0 0 0 0 0 0 0 0 0 1 1 2 2 3 3 3 3 2 2 3 3 2 2 1 1 1 1 1 1 1 1
0 0 0 0 0 0 0 0 0 0 0 0 0 0 0 0 0 0 0 0 0 0 1 2 2 2 3 3 3 2 2 3 3 3 2 2 1 1 1 1 1 1 1 1
0 0 0 0 0 0 0 0 0 0 0 0 0 0 0 0 0 0 0 0 0 0 1 1 2 2 2 2 2 2 2 3 3 3 2 2 1 1 1 1 1 1 1 1
0 0 0 0 0 0 0 0 0 0 0 0 0 0 0 0 0 0 0 0 0 0 0 1 1 1 2 2 1 1 2 2 3 3 2 2 1 1 1 1 1 1 1 1
0 0 0 0 0 0 0 0 0 0 0 0 0 0 0 0 0 0 0 0 0 0 0 1 1 1 1 1 1 1 2 2 2 2 2 2 2 1 1 1 1 1 1 1
0 0 0 0 0 0 0 0 0 0 0 0 0 0 0 0 0 0 0 0 0 0 0 1 1 1 1 1 1 1 1 1 2 2 2 2 2 2 2 2 2 1 1 1
0 0 0 0 0 0 0 0 0 0 0 0 0 0 0 0 0 0 0 0 0 0 1 1 1 1 1 1 1 1 1 1 1 2 2 2 2 2 2 2 2 2 2 2
0 0 0 0 0 0 0 0 0 0 0 0 0 0 0 0 0 0 0 0 0 0 1 1 1 1 1 1 1 1 1 1 1 1 2 2 2 2 2 2 2 2 2 3
0 0 0 0 0 0 0 0 0 0 0 0 0 0 0 0 0 0 0 0 0 0 0 1 1 1 1 1 1 1 1 1 1 1 1 2 2 2 2 2 2 2 3 4
0 0 0 0 0 0 0 0 0 0 0 0 0 0 0 0 0 0 0 0 0 0 0 1 1 1 1 1 1 1 1 1 1 1 1 2 2 2 1 1 2 3 4 4
0 0 0 0 0 0 0 0 0 0 0 0 0 0 0 0 0 0 0 0 0 0 1 1 1 1 2 1 1 1 1 1 1 2 2 2 2 2 2 2 3 4 4 4
0 0 0 0 0 0 0 0 0 0 0 0 0 0 0 0 0 0 0 0 0 1 1 1 1 1 2 1 1 1 1 1 2 2 2 2 2 2 2 2 3 4 3 3
0 0 0 0 0 0 0 0 0 0 0 0 0 0 0 0 0 0 0 0 0 1 2 2 1 1 1 1 1 2 2 2 1 1 2 2 2 2 2 2 3 3 3 2
0 0 0 0 0 0 0 0 0 0 0 0 0 0 0 0 0 0 0 0 1 1 2 2 1 1 1 1 1 1 2 1 1 1 1 1 2 2 2 3 3 3 2 2
0 0 0 0 0 0 0 0 0 0 0 0 0 0 0 0 0 0 0 0 1 1 1 1 1 1 1 1 1 1 1 1 0 0 0 1 2 2 2 3 3 3 3 2
0 0 0 0 0 0 0 0 0 0 0 0 0 0 0 0 0 0 0 0 0 0 0 1 1 1 1 1 1 1 1 0 0 0 0 0 1 1 2 3 4 4 3 2
0 0 0 0 0 0 0 0 0 0 0 0 0 0 0 0 0 0 0 0 0 0 0 0 0 0 0 0 0 1 1 1 1 0 0 0 0 0 1 2 3 3 3 2
0 0 0 0 0 0 0 0 0 0 0 0 0 0 0 0 0 0 0 0 0 0 0 0 0 0 0 0 0 0 1 1 1 0 0 0 0 0 0 1 1 2 2 2
0 0 0 0 0 0 0 0 0 0 0 0 0 0 0 0 0 0 0 0 0 0 0 0 0 0 0 0 0 0 1 1 1 1 0 0 0 0 0 0 1 1 1 1
0 0 0 0 0 0 0 0 0 0 0 0 0 0 0 0 0 0 0 0 0 0 0 0 0 0 0 0 0 0 1 1 1 1 0 0 0 0 0 0 1 1 1 1
Wind_Speed
8 7 7 7 8 8 6 6 5 3 5 6 7 7 6 7 8 8 8 7 8 8 9 8 7 6 5 5 4 5 6 5 4 2 2 2 1 1 1 1 2 3 3 3
6 9 8 6 7 8 8 7 7 4 5 5 6 7 6 7 9 7 7 7 7 7 9 8 8 6 5 5 5 4 5 6 5 3 2 2 2 1 1 1 2 2 2 3
10 4 5 7 7 8 9 8 6 5 4 7 7 8 9 8 9 8 7 6 5 7 8 10 9 8 6 5 6 5 5 6 5 5 3 2 2 1 1 1 1 1 2 2
8 5 5 6 7 7 7 6 6 7 6 5 7 6 5 7 7 8 7 5 5 5 6 8 9 8 8 6 6 6 6 6 5 5 4 4 3 2 2 2 1 1 1 2
6 6 7 8 7 7 5 5 7 8 8 9 8 8 4 7 7 7 7 7 6 6 6 7 8 7 8 7 6 6 5 6 6 5 4 4 3 2 2 2 2 1 1 1
9 6 5 6 5 5 5 7 9 9 7 9 10 8 3 4 6 7 6 6 6 6 6 6 7 7 6 6 5 5 5 5 5 5 5 5 4 3 3 3 2 2 1 1
10 10 8 6 7 7 7 6 4 5 6 7 6 5 1 3 6 6 6 5 5 5 5 6 7 7 6 6 5 5 5 5 5 6 5 5 5 4 4 3 3 2 1 1
8 8 10 8 8 6 8 9 5 4 4 3 3 3 3 8 7 5 5 5 4 4 5 6 6 6 6 6 5 5 6 5 5 5 5 5 5 3 2 3 3 2 2 2
6 3 6 7 7 7 8 8 9 8 9 7 4 3 5 7 6 5 5 4 4 4 5 6 7 7 6 6 5 5 6 6 5 5 4 4 4 4 3 3 3 2 2 2
7 7 4 5 5 8 9 7 5 5 5 7 6 4 4 7 6 6 5 4 4 4 5 5 6 6 6 6 5 5 5 6 6 5 4 3 3 4 4 3 3 3 2 2
7 8 6 6 8 9 9 9 8 5 6 5 5 1 3 5 6 5 4 4 3 3 4 5 5 5 5 5 5 5 4 5 5 5 5 5 4 3 4 3 3 3 2 3
6 6 8 8 7 6 7 9 8 6 6 6 5 1 3 4 4 4 4 4 3 3 2 4 5 5 5 5 5 5 4 4 4 4 4 4 4 4 3 3 3 3 3 3
4 6 7 6 6 6 7 8 8 7 6 6 6 1 3 3 3 3 4 3 3 3 2 2 3 4 4 4 4 4 4 4 4 4 4 4 4 4 4 3 3 3 3 2
3 7 8 8 5 4 7 8 9 8 6 8 7 5 2 2 2 2 3 3 3 3 2 2 3 3 4 4 4 3 4 4 4 4 4 4 4 4 4 3 3 2 2 2
5 8 10 11 9 8 9 10 10 10 10 10 8 6 3 2 2 2 2 2 3 2 2 2 3 3 4 4 4 3 3 4 4 5 4 4 3 3 2 2 3 3 3 2
7 9 10 12 11 10 12 12 11 11 10 10 9 7 2 1 1 2 2 2 2 1 1 1 2 3 3 3 3 3 3 3 4 4 4 3 3 3 3 2 2 2 2 2
6 8 9 9 9 10 12 9 10 10 9 8 7 3 1 0 1 2 1 1 2 2 2 1 1 1 2 3 3 3 3 3 3 3 3 4 3 3 3 2 2 2 2 2
8 8 6 7 9 12 4 0 2 4 5 4 4 2 1 1 2 2 1 1 2 2 2 2 1 1 1 2 2 2 2 3 3 3 3 3 3 3 3 2 2 2 2 2
8 7 6 6 9 9 5 2 2 3 5 3 3 2 0 1 1 1 3 3 4 3 3 2 2 1 1 2 3 2 2 3 3 3 3 3 3 3 3 3 3 2 2 2
6 6 6 6 8 8 2 2 2 2 3 1 1 1 1 0 1 1 4 5 5 4 3 3 2 2 2 2 3 2 2 2 2 2 2 2 3 3 3 3 2 2 2 2
6 7 8 9 9 6 1 1 0 2 1 4 3 3 2 1 2 3 4 4 4 3 3 3 2 2 2 2 2 2 2 2 2 1 1 2 3 3 3 3 2 2 2 2
6 5 7 7 8 5 2 1 0 2 3 3 3 3 2 3 3 4 4 3 3 3 2 2 2 2 2 2 2 1 1 2 2 2 1 2 2 2 2 3 2 2 2 2
5 4 3 4 3 1 1 1 2 3 3 3 3 3 3 2 1 2 2 1 1 2 2 2 2 1 2 2 2 2 1 2 2 2 1 1 2 2 2 2 2 2 2 2
4 3 5 5 3 2 2 3 2 2 2 3 3 2 2 1 1 1 1 0 1 1 1 2 2 1 1 1 1 2 2 1 1 1 1 1 2 2 2 1 1 1 1 1
5 4 6 8 5 3 3 3 2 2 2 2 1 1 1 1 1 0 1 0 0 1 1 2 2 1 1 1 1 1 2 1 1 1 1 1 1 2 2 1 1 1 1 2
7 7 7 6 4 5 3 2 3 3 3 3 2 1 1 1 1 1 1 1 1 1 1 2 2 1 1 1 1 1 1 1 0 0 0 1 1 1 2 2 1 2 2 2
Wind_Direction
205 221 224 218 223 252 266 269 264 231 185 215 234 230 210 193 199 209 203 195 182 175 166 157 153 152 151 150 147 136 134 127 118 106 103 104 97 83 61 65 54 54 47 58
216 227 229 233 236 245 256 257 259 240 196 225 244 250 226 216 205 208 205 194 183 173 164 159 157 159 164 154 157 146 134 131 127 128 130 133 125 121 105 67 58 58 55 60
232 234 220 227 232 242 254 262 265 271 237 241 252 249 227 212 209 199 204 194 185 180 172 163 162 164 162 163 162 155 145 138 135 133 125 124 107 98 99 102 82 56 66 62
244 231 229 237 241 247 255 271 280 275 269 255 237 264 228 201 196 187 184 182 183 181 174 160 163 164 163 170 160 157 154 144 145 143 144 147 140 143 148 143 145 147 117 93
243 222 226 236 241 251 264 274 274 270 269 271 256 258 233 186 185 179 179 183 181 176 175 163 162 164 163 167 161 158 155 149 151 146 147 154 148 158 146 138 139 147 123 115
251 249 243 249 247 246 259 260 254 250 257 257 250 247 243 190 172 165 167 173 178 174 172 166 158 153 155 153 153 150 156 155 154 154 160 160 159 165 152 149 149 150 140 146
233 225 217 229 238 225 233 247 251 230 223 240 229 230 205 110 114 128 142 154 162 159 158 157 153 151 150 150 154 159 161 166 165 169 172 167 168 173 166 165 165 160 155 148
244 227 201 205 230 236 229 236 246 266 266 283 256 232 123 110 104 103 122 133 136 150 153 150 150 148 153 157 161 171 171 173 172 176 175 165 165 161 159 162 154 153 151 153
281 253 174 192 218 238 241 237 254 276 286 283 244 182 136 127 129 134 128 129 142 154 154 156 152 151 156 161 170 181 175 173 171 174 171 166 166 154 159 164 148 145 151 150
289 284 239 198 214 230 242 264 265 258 269 271 264 238 172 157 153 148 144 145 145 145 151 155 155 158 162 165 171 177 171 169 170 173 170 165 159 154 158 157 157 155 152 141
274 272 255 219 218 236 226 234 246 253 258 272 282 324 87 132 141 147 148 138 135 139 147 151 149 157 159 162 165 173 177 168 167 170 168 167 169 165 163 161 164 157 152 158
257 270 262 246 232 236 251 244 245 250 261 264 274 283 68 94 118 129 130 126 127 127 129 141 145 145 152 162 169 170 172 170 167 166 162 166 168 167 167 169 169 168 167 165
303 267 264 249 226 209 234 247 251 261 271 267 269 242 122 112 113 119 119 118 124 123 119 126 133 142 148 155 165 168 168 167 163 159 160 167 173 174 179 183 181 174 171 166
288 265 260 265 281 271 256 260 256 253 255 264 261 257 216 146 148 136 134 137 125 120 127 131 137 142 147 156 156 164 172 166 162 160 166 173 176 179 182 182 180 174 174 182
247 263 267 272 272 265 267 263 258 255 258 265 269 271 259 221 205 150 135 127 132 131 133 139 149 155 156 158 159 162 164 166 163 161 168 173 170 163 167 175 179 178 182 186
240 265 271 269 269 265 263 258 256 255 256 260 262 268 263 246 170 129 121 120 119 118 125 140 152 156 160 162 162 160 166 169 164 168 169 163 158 152 157 175 182 165 163 163
253 262 271 274 274 267 256 250 249 248 252 255 256 257 231 210 110 115 115 110 108 93 96 74 32 162 169 171 158 159 168 159 165 161 149 146 148 151 158 166 161 158 162 159
265 270 269 270 269 254 253 249 289 279 273 265 258 248 252 91 74 81 84 96 94 86 89 86 48 31 94 142 141 151 150 163 160 150 144 144 150 149 153 156 158 166 171 168
241 252 262 264 266 267 254 229 251 262 269 267 256 255 322 90 104 102 67 65 68 66 62 59 43 32 64 101 110 115 120 126 134 143 151 159 159 163 166 170 176 177 175 175
230 236 247 258 263 265 301 66 16 303 266 33 350 350 39 101 256 86 64 62 63 58 56 50 38 38 61 90 108 119 126 120 134 145 160 165 162 167 177 177 170 166 175 185
216 221 233 251 260 266 29 75 69 246 340 40 30 23 10 4 31 76 79 69 64 60 57 56 58 59 66 80 106 119 111 114 115 128 154 160 163 164 167 162 160 163 174 187
239 233 232 239 251 257 88 133 222 23 40 35 23 18 25 49 51 69 80 76 79 77 72 69 64 59 61 77 96 94 107 106 103 111 134 160 160 158 156 161 168 170 171 184
249 260 269 259 254 31 69 40 42 26 3 10 15 24 35 53 64 73 88 89 100 102 109 106 100 83 65 65 92 96 75 91 105 118 145 163 153 138 141 164 173 173 177 182
263 286 284 282 274 303 330 339 358 359 342 356 20 30 25 2 20 97 118 97 86 98 117 121 126 124 96 72 82 106 100 100 118 147 158 143 144 145 147 148 163 169 185 182
287 284 272 273 281 291 280 293 313 328 328 331 343 13 355 340 309 238 190 185 90 78 126 135 137 132 116 93 84 91 100 116 163 177 167 139 149 154 144 118 95 158 137 170
269 271 266 270 291 289 294 319 313 305 301 297 294 290 282 275 264 247 223 193 180 167 152 146 143 141 131 130 122 105 105 116 128 189 138 124 118 149 144 141 107 63 107 118